sat.trackr.live / text

‹ back to catalog

SNUGLITE

NORAD 43784 · 2018-099AC

PAYLOAD ACTIVE UNKNOWN

§ Identity

Operator
Country
SKOR
Launch date
2018-12-03
Launch site
AFWTR
Launch vehicle
Mass (kg)
RCS (m²)

External: N2YO · Heavens-Above · Gunter

§ Orbital elements

Epoch: 2026-05-25T03:23:22.007616Z

Period
94.33 min
Inclination
97.3887°
Eccentricity
0.0003290
Mean motion
15.26592280 rev/d
Perigee alt
483.7 km
Apogee alt
488.3 km
Semi-major
6,864.1 km
B*
4.0787e-4
RAAN
199.6557°
Arg perigee
43.6641°
Mean anomaly
316.4857°
Rev number
40,980

§ Raw data

SNUGLITE1 43784U 18099AC  26145.14122694  .00010610  00000+0  40787-3 0  99962 43784  97.3887 199.6557 0003290  43.6641 316.4857 15.26592280409805

JSON: /api/v1/satellites/43784 · /tle

For live sub-satellite position, see the globe view (requires WebGL).

§ Visibility from observer

Set your observer location to see the next 7 days of passes ≥ 10°. The values pass through the URL so the page stays shareable.

No JS? Fill the form by hand. The geolocation button needs JavaScript.

§ Radio — SatNOGS DB

ModeDescriptionDownlinkUplink
GMSK GMSK9k6 TLM 437.275 MHz

1 transmitter · refreshed weekly from db.satnogs.org